Location: Spring Creek
(38.2870°N, 100.2160°W)
Time: 03:16:21
(UTC+00:00)

Timation 2 Rocket - Pass Details

Date: 08 May 2021
Orbit: 907 x 1074 km, 70.0° (Epoch: 22 June)

Event Time Altitude Azimuth Distance (km) Brightness Sun altitude
Rises 09:17:05 0° 339° (NNW) 3,546 7.3 -23.1°
Reaches altitude 10° 09:19:38 10° 344° (NNW) 2,597 6.6 -22.7°
Maximum altitude 09:25:31 58° 63° (ENE) 1,053 4.4 -21.9°
Drops below altitude 10° 09:31:26 10° 142° (SE) 2,613 6.2 -21.1°
Sets 09:34:00 0° 146° (SSE) 3,569 6.8 -20.8°
